Погода в Щербакуле

Погода в Щербакуле : погода сейчас, прогноз погоды и архив. Всё, что Вы хотите узнать о погоде в Щербакуле!

Хотите узнать прогноз погоды в Щербакуле? Тогда Вам сюда: Погода в Щербакуле

Поиск расширенной информации на нашем сайте:

Другие новости

Новости СМИ2

Главная страница сайта

Новости сайта

03.07.2017

Напоминаем, что на нашем специализированном сайте Метеоцентр.Азия вы можете получить высокодетализированные автоматические прогнозы погоды по пунктам России, СНГ и мира в авиационном формате (включающие направление и скорость ветра, видимость, явления погоды, количество и форму облачности, нижнюю и верхнюю границу облачности).

Рекомендуем: http://www.italyvisa.ru Документы необходимые для оформления визы в Италию

Погода в Щербакуле - сегодня

Время (UTC), дата Ветер
(°,м/с) 
Видим.   Явления Облачность Т
(°С)
Тd
(°С)
f(%) Тe
(°С)
Pmin
(гПа)
dP
(гПа)
Po
(мм)
O2
(г/м3)
Тmin Tmax R s Состояние
почвы
21 21.11.17 210 (ЮЗ) 20000 м    ясно 
-11.2 -12.8 88 -14  1032.8  763  322           
00 22.11.17 170 (Ю) 20000 м    ясно 
-11.3 -13 87 -13  1032.1  -0.7  763  322           
03 22.11.17 160 (Ю) 20000 м    10/0 верхняя 
[Cs]
-10.7 -12.5 87 -13  1031.9  -0.2  763  321  -12.9      10  равномерный
сухой снег
100% 
06 22.11.17 200 (Ю) 20000 м    10/0 верхняя 
[Cs]
-6.1 -9.6 76 -9  1031.7  0.1  763  315           
09 22.11.17 180 (Ю) 20000 м    8/0 верхняя 
[Cc]
-3.6 -8.1 71 -6  1030.6  -1  762  312           
12 22.11.17 200 (Ю) 20000 м    3/0 верхняя 
[Cs]
-7.1 -9.7 82 -9  1030.3  -0.5  762  316           
15 22.11.17 180 (Ю) 20000 м    4/0 верхняя 
[Cs]
-8.6 -10.3 87 -10  1029.5  -0.8  761  318    -3.3       
18 22.11.17 160 (Ю) 20000 м    4/0 верхняя 
[Cs]
-10.4 -11.9 89 -12  1029.2  -0.4  761  320           
21 22.11.17 140 (ЮВ) 20000 м    3/0 верхняя 
[Ci fib]
-11.5 -13.6 84 -13  1028.5  -0.7  760  321           
00 23.11.17 150 (ЮВ) 20000 м    3/0 верхняя 
[Ci fib]
-12.3 -14 87 -14  1028.4  -0.1  760  322           
03 23.11.17 130 (ЮВ) 20000 м  [диам. изморози 2 мм]  8/0 верхняя 
[Ci]
-13.8 -15.7 86 -16  1029  0.4  760  324  -14      10  равномерный
сухой снег
100% 
06 23.11.17 140 (ЮВ) 20000 м  [диам. изморози 3 мм]  6/0 верхняя 
[Ci fib]
-6.9 -8.9 86 -8  1029.6  0.9  761  315           
09 23.11.17 150 (ЮВ) 20000 м  [диам. изморози 0 мм]  ясно 
-2.8 -8.2 66 -4  1028.6  -0.6  761  310           
12 23.11.17 130 (ЮВ) 20000 м    ясно 
-8.4 -11.2 80 -10  1029  0.1  761  317           
15 23.11.17 120 (ЮВ) 20000 м    ясно 
-8.7 -11.1 83 -10  1028.8  -0.2  760  318    -2.7       
18 23.11.17 120 (ЮВ) 20000 м    ясно 
-9.5 -11.3 87 -9  1028.9  760  319           
21 23.11.17 100 (В) 20000 м    ясно 
-9.7 -11.3 88 -10  1028.6  -0.3  760  319           
00 24.11.17 120 (ЮВ) 20000 м    ясно 
-10.9 -12.7 87 -11  1028.1  -0.6  760  320           
03 24.11.17 150 (ЮВ) 20000 м  [диам. изморози 3 мм]  ясно 
-11.4 -13 88 -13  1027.7  -0.4  759  321  -11.9      10  равномерный
сухой снег
100% 
06 24.11.17 140 (ЮВ) 20000 м  [диам. изморози 3 мм]  ясно 
-6 -8.8 81 -6  1026.6  -0.7  759  314           
09 24.11.17 160 (Ю) 20000 м  [диам. изморози 0 мм]  ясно 
-4.7 -9.3 70 -6  1025.4  -1.2  758  312           
12 24.11.17 120 (ЮВ) 20000 м    ясно 
-8.6 -10.3 87 -10  1024  -1.5  757  316           
15 24.11.17 130 (ЮВ) 20000 м    ясно 
-11 -12.5 89 -13  1022.9  -1.3  756  319    -3.3       
18 24.11.17 140 (ЮВ) 20000 м  [диам. изморози 1 мм]  ясно 
-12 -13.7 87 -14  1021.2  -1.6  755  319           
21 24.11.17 200 (Ю) 4000 м  дымка [диам. изморози 10 мм]  ясно 
-12.7 -14.6 86 -13  1019.9  -1.3  754  320           
Время (UTC), дата Ветер
(°,м/с) 
Видим.   Явления Облачность Т
(°С)
Тd
(°С)
f(%) Тe
(°С)
Pmin
(гПа)
dP
(гПа)
Po
(мм)
O2
(г/м3)
Тmin Tmax R s Состояние
почвы

Для получения пояснительной информации подведите курсор к названию столбца.

ПОГОДА в Щербакуле - архив

Всё, что Вы хотите узнать о погоде в Щербакуле - удобно и подробно!

Выберите нужную дату (начиная с 1 января 2015* года) и нажмите кнопку "Найти".
Будут отображены архивные сводки погоды по пункту Щербакуль, начиная с указанной даты.


Отображать данные в формате CSV (для использования в таблицах Excel)


Внимание! Наш архив погоды предназначен исключительно для личного некоммерческого использования в познавательных целях. Если Вам необходимы официальные справки о состоянии погоды (для производственных, юридических, коммерческих и т.п. целей), обращайтесь в органы Росгидромета.

*Примечание: данная дата относится к архиву по метеостанциям СССР (Россия, СНГ, Балтия).
Архив по метеостанциям Зарубежной Европы и Азии (кроме Китая) хранится 10 дней, по другим регионам земного шара (Китай, Африка, Америка, Австралия, Океания) - 1 день.

Щербакуль - район местоположения метеостанции


Название, широта, долгота, высота метеостанции:
Щербакуль 54.6°ш. 72.4°д. 115 м над ур. моря [Российская Федерация]

Дополнительная информация

В oтличие oт бoльшинства пoгoдных сайтoв мы публикуем пoдрoбную метеoинфoрмацию в детальнoм прoфессиoнальнoм фoрмате.

Характеристики температуры и влажнoсти вoздуха измеряются на высoте 2 м в тени вдали oт зданий и деревьев.
Скoрoсть ветра измеряется на высoте 10 м (на урoвне рoста челoвека скoрoсть ветра ниже в 1.5-2 раза). Если метеoстанция нахoдится в гoрoде или в лесу, тo скoрoсть ветра занижена на 2-4 м/с пo сравнению с oткрытым местoм. Скoрoсть ветра над акватoриями крупных рек и oзёр, а также на вершинах хoлмoв на 2-5 м/с выше, чем в oбычных услoвиях.
Атмoсфернoе давление в разных тoчках местнoсти мoжет значительнo oтличаться oт давления на метеoстанции, в зависимoсти oт услoвий рельефа (при пoдъёме на 10 м давление пoнижается примернo на 1 мм рт.ст.).